KMRY

Monterey Regional Airport

Airport
ICAO code
KMRY
Summary
ICAO Region
NAM
ICAO Territory
Location

Monterey, California,

Serving
Monterey, California
Coordinates
36° 35' 18" N , 121° 50' 57" W
KCC
Airport LOS
Parallel Runway Operation
Airport WX
Fog
Metar
KMRY 040754Z AUTO 18004KT 10SM FEW043 SCT060 08/07 A3012 RMK AO2 SLP214 T00830067 401330078

Description

Monterey Regional Airport is a regional airport located 5 km southeast of the central business district of Monterey, a city in Monterey County, California.

Climatology

Dry-summer subtropical ”Mediterranean" climate (Köppen climate classification Csb) - characterized by warm, dry summers and mild winters.

Runways

Designator Length Width Surface Rops
10L/28R 1071 18 ASP Yes/Yes
10R/28L 2321 46 ASP Yes/Yes

Airport map

Aerial View

SKYbrary Partners:

Safety knowledge contributed by: